Lamoni, IA

11:56 AM CDT on October 18, 2017 (GMT -0500)
Lamoni Municipal

Weather History for KLWD - January, 2012

Change the Weather History Date:

Monday, January 23, 2012

  Actual Average Record
Temperature  
Mean Temperature 27 °F 24 °F  
Max Temperature 33 °F 34 °F 60 °F (1976)
Min Temperature 21 °F 15 °F -18 °F (1963)
Degree Days  
Heating Degree Days 38 41  
Month to date heating degree days 832 943  
Since 1 July heating degree days 2976 3372  
Cooling Degree Days 0 0  
Month to date cooling degree days 0 0  
Year to date cooling degree days 0 0  
Moisture  
Dew Point 24 °F    
Average Humidity 86    
Maximum Humidity 96    
Minimum Humidity 75    
Precipitation  
Precipitation T in 0.02 in 0.31 in (1949)
Month to date precipitation 0.26 0.47  
Year to date precipitation 0.26  
Sea Level Pressure  
Sea Level Pressure 29.78 in    
Wind  
Wind Speed 15 mph (WNW)    
Max Wind Speed 25 mph    
Max Gust Speed 33 mph    
Visibility 7 miles    
Events Snow    
T = Trace of Precipitation, MM = Missing Value Source: NWS Daily Summary

Daily Weather History Graph

Daily Weather History Graph

Search for Another Location

Airport or City:

Trip Planner

Search our weather history database for the weather conditions in past years. The results will help you decide how hot, cold, wet, or windy it might be!

Date:

Astronomy

Jan. 23, 2012 Rise Set
Actual Time 7:33 AM CST 5:21 PM CST
Civil Twilight 7:03 AM CST 5:51 PM CST
Nautical Twilight 6:30 AM CST 6:24 PM CST
Astronomical Twilight 5:57 AM CST 6:57 PM CST
Moon 7:28 AM CST (1/23) 6:10 PM CST (1/23)
Length of Visible Light 10h 47m
Length of Day
9h 48m
New Moon, 0% of the Moon is Illuminated
Jan 23
New Moon
Jan 30
First Quarter
Feb 7
Full
Feb 14
Last Quarter
Feb 21
New

Hourly Weather History & Observations

Time (CST) Temp. Windchill Dew Point Humidity Pressure Visibility Wind Dir Wind Speed Gust Speed Precip Events Conditions
12:53 AM 32.0 °F 20.1 °F 30.0 °F 92% 29.48 in 7.0 mi WNW 19.6 mph 26.5 mph N/A   Overcast
1:49 AM 30.2 °F 18.5 °F 28.4 °F 93% 29.50 in 2.5 mi West 17.3 mph - 0.00 in Snow Light Snow
1:53 AM 30.0 °F 16.9 °F 28.0 °F 92% 29.53 in 2.0 mi WNW 21.9 mph 27.6 mph 0.00 in Snow Light Snow
2:00 AM 30.2 °F 17.4 °F 28.4 °F 93% 29.50 in 1.0 mi WNW 20.7 mph 27.6 mph 0.00 in Snow Light Snow
2:13 AM 30.2 °F 17.8 °F 28.4 °F 93% 29.51 in 0.8 mi WNW 19.6 mph 25.3 mph 0.00 in Snow Light Snow
2:20 AM 30.2 °F 18.5 °F 26.6 °F 86% 29.51 in 1.8 mi WNW 17.3 mph 26.5 mph 0.00 in Snow Light Snow
2:27 AM 30.2 °F 17.4 °F 26.6 °F 86% 29.52 in 2.0 mi West 20.7 mph 27.6 mph N/A Snow Light Snow
2:35 AM 30.2 °F 17.8 °F 26.6 °F 86% 29.53 in 3.0 mi WNW 19.6 mph 27.6 mph 0.00 in Snow Light Snow
2:53 AM 28.9 °F 16.1 °F 27.0 °F 92% 29.57 in 4.0 mi WNW 19.6 mph 26.5 mph 0.00 in Snow Light Snow
3:04 AM 28.4 °F 15.4 °F 26.6 °F 93% 29.55 in 6.0 mi WNW 19.6 mph 27.6 mph 0.00 in   Overcast
3:53 AM 28.9 °F 14.8 °F 26.1 °F 89% 29.60 in 7.0 mi WNW 24.2 mph 27.6 mph 0.00 in   Overcast
4:53 AM 28.9 °F 16.1 °F 25.0 °F 85% 29.63 in 6.0 mi WNW 19.6 mph 26.5 mph N/A   Overcast
5:53 AM 28.0 °F 15.3 °F 24.1 °F 85% 29.68 in 6.0 mi WNW 18.4 mph 26.5 mph N/A   Overcast
6:25 AM 28.4 °F 15.1 °F 24.8 °F 86% 29.66 in 7.0 mi WNW 20.7 mph 27.6 mph N/A   Overcast
7:53 AM 28.9 °F 16.1 °F 24.1 °F 82% 29.75 in 10.0 mi WNW 19.6 mph 28.8 mph N/A   Overcast
8:53 AM 28.9 °F 16.5 °F 24.1 °F 82% 29.79 in 9.0 mi WNW 18.4 mph - N/A   Overcast
9:53 AM 28.0 °F 15.7 °F 21.9 °F 78% 29.83 in 10.0 mi WNW 17.3 mph 27.6 mph N/A   Overcast
10:30 AM 26.6 °F 13.4 °F 21.2 °F 80% 29.82 in 7.0 mi West 18.4 mph - N/A   Overcast
10:53 AM 28.0 °F 14.3 °F 21.9 °F 78% 29.86 in 9.0 mi West 21.9 mph 29.9 mph N/A   Overcast
11:53 AM 28.0 °F 14.9 °F 21.9 °F 78% 29.86 in 9.0 mi WNW 19.6 mph - N/A   Overcast
12:53 PM 28.0 °F 16.1 °F 21.9 °F 78% 29.87 in 9.0 mi WNW 16.1 mph 26.5 mph N/A   Overcast
1:53 PM 28.0 °F 15.7 °F 21.9 °F 78% 29.89 in 9.0 mi WNW 17.3 mph 24.2 mph N/A   Overcast
2:53 PM 28.9 °F 17.3 °F 21.9 °F 75% 29.92 in 10.0 mi West 16.1 mph - N/A   Overcast
3:53 PM 28.9 °F 17.7 °F 23.0 °F 78% 29.94 in 10.0 mi WNW 15.0 mph - N/A   Overcast
4:53 PM 28.9 °F 19.8 °F 21.9 °F 75% 29.97 in 10.0 mi West 10.4 mph - N/A   Overcast
5:53 PM 28.9 °F 20.4 °F 21.9 °F 75% 29.99 in 10.0 mi WNW 9.2 mph - N/A   Overcast
6:53 PM 28.9 °F 21.1 °F 21.9 °F 75% 30.02 in 10.0 mi NW 8.1 mph - N/A   Overcast
7:53 PM 28.9 °F 18.6 °F 21.9 °F 75% 30.02 in 10.0 mi WNW 12.7 mph - N/A   Overcast
8:53 PM 27.0 °F 19.5 °F 21.0 °F 78% 30.04 in 10.0 mi WNW 6.9 mph - N/A   Mostly Cloudy
9:09 PM 24.8 °F 16.9 °F 19.4 °F 80% 30.01 in 10.0 mi WNW 6.9 mph - N/A   Scattered Clouds
9:53 PM 21.9 °F 14.5 °F 19.0 °F 89% 30.07 in 10.0 mi WNW 5.8 mph - N/A   Clear
10:53 PM 21.0 °F 14.6 °F 18.0 °F 88% 30.08 in 10.0 mi West 4.6 mph - N/A   Clear
11:53 PM 21.0 °F 14.6 °F 18.0 °F 88% 30.10 in 10.0 mi WSW 4.6 mph - N/A   Clear